Tracking 20242 objects as of 24-Jan-2020
HD Live streaming from Space Station
objects crossing your sky now

COSMOS 2251 DEB

Track COSMOS 2251 DEB now!
10-day predictions


NORAD ID: 36459
Int'l Code: 1993-036BBJ
Perigee: 761.1 km
Apogee: 967.4 km
Inclination: 74.0 °
Period: 102.1 minutes
Semi major axis: 7235 km
RCS: 0.0054 m2 (small)
Launch date: June 16, 1993
Source: Commonwealth of Independent States (former USSR) (CIS)
Launch site: PLESETSK MISSILE AND SPACE COMPLEX (PKMTR)

Note: This is SATELLITE DEBRIS
aabbcc
Your satellite tracking list
Your tracking list is empty




NASA's NSSDC Master Catalog

Two Line Element Set (TLE):
1 36459U 93036BBJ 20023.25709303 +.00000309 +00000-0 +16934-3 0  9992
2 36459 074.0149 216.9515 0142551 105.2057 256.4897 14.10669008304947
Source of the keplerian elements: AFSPC